Wind_Speed
22 25 25 26 29 34 34 34 33 32 30 29 27 26 25 23 22 20 20 21 22 23 22 21 22 21 21 22 23 24 25 26 25 25 25 25 24 23 22 23 21 21 22
28 28 27 28 31 35 36 35 34 32 31 29 28 26 24 22 21 21 22 23 23 22 22 22 21 22 22 22 22 23 24 24 22 23 26 25 24 23 22 24 24 22 22
29 29 28 31 32 36 37 36 34 32 29 28 27 25 23 22 22 24 24 24 23 22 21 21 22 22 22 21 21 22 23 22 21 20 20 19 20 21 22 23 22 21 20
29 29 28 32 34 35 36 36 33 30 28 28 26 24 23 23 24 25 25 23 21 20 21 20 21 22 21 20 20 21 20 17 12 9 16 18 18 20 20 21 21 19 19
30 30 29 34 34 37 36 34 32 30 28 28 26 25 24 24 26 25 25 21 20 19 20 20 20 21 20 19 19 19 18 17 18 16 15 17 15 17 17 17 18 19 19
32 34 34 36 37 36 35 34 32 30 30 28 26 26 25 25 26 25 23 22 18 19 20 19 20 20 18 18 17 16 12 8 9 13 15 15 14 15 16 18 18 18 18
29 31 31 35 36 36 35 33 31 30 29 28 27 27 26 25 25 24 24 22 20 23 23 21 20 18 17 17 15 13 12 15 14 11 13 13 11 13 15 16 17 17 17
27 33 35 35 34 32 32 30 31 30 29 30 30 29 28 26 24 21 22 21 20 22 23 22 19 17 17 15 13 11 9 7 9 10 12 11 11 11 12 14 15 15 16
23 35 34 34 33 30 29 29 28 29 30 31 30 30 29 26 24 21 21 21 20 21 22 20 18 17 15 13 11 10 11 10 9 9 11 10 8 8 10 12 13 13 14
21 16 26 27 28 26 24 25 26 28 30 31 31 30 29 26 24 21 21 20 20 20 20 19 17 16 13 11 10 9 7 8 8 8 10 9 5 5 8 10 11 11 12
30 31 28 28 29 29 25 23 22 23 24 26 28 30 30 27 23 17 16 18 18 19 18 18 17 13 11 10 7 8 8 7 6 7 8 6 9 5 6 8 9 9 10
26 29 30 34 40 36 26 22 21 19 20 20 26 23 21 24 16 16 19 18 17 17 17 16 14 12 9 6 3 6 6 6 6 7 7 4 3 6 5 7 7 8 8
29 32 36 42 42 42 32 32 25 21 18 18 18 19 20 17 19 16 17 15 16 16 15 13 10 5 5 4 4 5 5 5 6 5 6 7 3 4 2 6 6 6 7
21 30 39 44 43 37 31 35 27 27 19 19 16 15 16 19 19 16 15 14 15 12 12 9 7 7 6 6 6 5 6 5 5 5 8 9 5 5 4 5 5 5 5
23 28 27 33 29 38 27 32 27 21 19 21 17 19 20 18 17 16 16 14 13 12 11 9 8 7 6 5 4 4 4 5 5 5 3 7 5 3 4 3 2 2 3
26 31 27 25 30 25 24 24 20 16 14 17 18 15 12 15 16 14 15 14 13 12 10 9 7 6 5 4 4 3 3 4 4 4 2 3 7 1 4 5 2 1 1
30 27 25 22 23 27 22 14 17 15 14 15 15 12 11 13 14 16 14 14 13 12 12 10 8 6 5 3 3 2 2 2 2 2 2 2 2 4 3 5 3 2 0
27 32 32 31 28 30 30 27 19 17 17 15 13 15 12 13 14 14 14 14 14 13 11 10 8 7 5 3 1 1 2 2 1 1 1 1 2 3 2 1 6 7 9
24 27 35 32 32 29 21 21 18 16 17 16 16 15 15 13 14 14 15 14 15 13 11 10 9 6 4 2 2 3 3 4 3 3 2 2 3 5 6 3 6 9 8
27 31 29 24 21 22 18 16 15 17 17 16 17 15 16 15 15 14 13 14 14 13 11 10 9 6 3 1 4 5 6 4 5 5 5 7 6 6 7 6 9 8 8
28 32 28 21 19 18 17 18 19 20 16 15 14 13 15 14 15 15 13 14 14 12 12 11 9 6 5 2 5 6 8 8 7 7 8 9 8 9 8 9 10 9 11
31 30 23 19 15 18 18 18 19 18 17 15 14 14 14 19 19 16 15 15 14 13 12 11 9 7 4 3 2 8 5 3 10 11 10 9 9 10 12 11 10 11 12
31 28 25 21 18 18 17 17 16 15 13 12 14 14 14 14 16 17 16 16 15 14 13 11 9 6 4 2 1 3 4 3 14 12 5 9 8 11 11 12 14 13 13
30 30 26 24 24 21 19 19 19 19 17 17 16 14 16 18 16 16 17 17 16 14 13 12 8 4 1 4 3 6 6 9 4 5 11 13 10 13 11 14 15 15 15
31 30 29 26 23 22 21 21 21 19 18 13 15 15 19 21 18 18 18 17 16 14 13 11 8 5 2 5 7 10 10 11 12 13 9 14 14 14 13 15 15 16 16
31 31 30 28 26 22 23 25 22 23 16 17 17 18 19 19 21 21 20 18 17 15 13 12 10 7 9 9 8 9 11 11 13 14 11 15 15 17 17 17 17 16 16
Wind_Direction
148 155 154 160 166 167 164 160 156 151 147 145 144 141 137 134 131 128 124 121 120 118 117 116 113 106 99 98 97 94 90 84 80 80 78 71 64 65 68 68 57 55 56
145 155 156 161 167 166 164 161 156 151 149 149 147 143 140 139 134 127 124 123 123 123 121 119 113 109 106 101 96 93 91 88 87 81 75 64 65 62 60 59 56 52 49
147 158 155 163 167 167 165 161 157 152 147 149 147 144 143 139 133 128 125 126 125 123 121 118 114 111 109 105 102 99 94 96 100 99 85 71 64 60 55 56 58 47 48
151 159 160 165 168 167 162 160 154 147 147 150 147 147 142 137 133 129 127 127 127 125 123 117 116 117 113 112 108 103 92 89 90 77 69 69 62 60 60 50 46 51 44
154 162 164 166 167 165 160 157 152 148 150 149 148 144 141 139 133 131 128 128 129 128 125 122 121 120 119 116 110 99 95 86 79 67 64 62 62 58 55 56 49 42 44
163 166 167 166 164 162 158 156 153 151 150 148 145 142 139 137 134 130 126 122 127 134 133 131 127 124 123 116 111 95 84 43 51 71 78 66 58 59 54 51 47 43 42
168 153 155 162 161 160 158 156 153 153 150 148 144 139 137 137 135 132 131 131 126 128 141 135 130 127 123 116 109 94 72 49 65 62 73 66 64 62 57 52 49 49 49
166 156 156 161 156 157 157 155 153 151 150 147 144 141 141 140 136 131 130 128 126 132 141 136 133 130 128 122 114 97 79 50 57 46 68 72 71 64 58 53 51 47 53
177 148 152 158 155 156 151 149 149 150 149 149 147 146 142 140 133 130 126 128 127 135 135 137 136 133 133 125 116 90 66 65 43 51 47 52 71 77 63 55 53 57 54
121 88 147 151 155 149 144 142 141 146 149 149 148 144 136 138 134 130 126 130 133 135 141 142 137 138 131 128 111 81 63 36 35 37 63 66 57 74 71 61 58 61 57
127 139 149 149 146 135 134 140 139 144 146 144 146 139 136 132 128 125 135 135 139 139 143 139 139 136 132 121 99 69 37 32 22 31 54 69 57 66 72 69 71 67 61
116 135 141 139 133 130 133 129 128 130 134 141 140 129 134 129 132 132 145 152 144 134 139 139 136 118 119 117 90 48 41 37 28 30 49 35 43 44 95 87 84 76 68
132 133 147 136 132 136 145 146 146 144 148 140 141 142 142 137 142 137 140 134 137 136 128 129 118 125 108 98 71 52 43 25 22 24 17 348 359 30 141 110 93 82 71
118 130 140 143 148 147 150 146 140 137 140 138 141 152 154 146 144 152 147 148 149 148 148 149 138 128 113 91 81 67 48 27 17 24 23 9 32 66 132 119 107 92 77
116 123 130 140 140 145 152 148 140 141 137 166 174 167 153 157 168 164 155 161 157 156 159 151 151 138 119 106 85 67 56 45 38 36 36 14 43 98 88 113 132 109 78
110 118 126 134 143 138 153 144 149 159 162 175 176 168 163 173 170 163 159 159 157 163 162 159 154 151 135 114 92 85 61 48 47 36 48 47 46 90 150 96 115 182 317
119 121 121 119 130 142 143 161 150 175 188 185 185 175 184 177 168 159 159 161 164 161 153 147 153 147 141 145 127 81 47 45 46 24 18 70 92 63 347 266 200 149 339
130 132 135 143 163 165 157 168 185 197 191 180 187 179 181 177 169 165 168 168 166 160 156 162 159 158 163 162 89 27 304 261 188 315 41 45 9 343 272 317 296 276 279
149 147 142 153 166 186 183 188 194 192 185 201 196 191 181 178 177 176 175 170 163 163 166 164 164 169 149 171 251 255 270 261 233 271 282 276 302 331 316 285 324 316 286
157 157 162 175 179 182 174 181 188 188 193 197 197 195 185 186 185 181 179 176 170 169 168 168 165 151 165 199 287 279 264 260 249 263 265 271 286 290 299 295 309 311 299
171 170 176 183 184 182 180 185 190 194 190 196 196 188 189 191 188 187 183 182 182 177 176 170 163 167 181 246 298 287 299 213 229 250 252 266 279 286 278 285 296 305 305
179 183 192 200 195 190 191 194 193 196 197 200 196 195 195 196 185 191 190 186 187 182 178 177 183 190 210 216 318 304 291 252 204 228 237 259 272 281 284 275 289 292 295
189 198 201 204 203 198 198 195 189 188 195 204 202 189 196 193 196 198 194 192 191 188 188 186 193 208 258 211 236 311 310 312 339 294 250 240 256 280 278 281 286 282 286
198 199 206 205 203 201 206 194 199 185 194 205 198 189 194 190 199 201 200 197 193 193 195 193 194 214 238 317 294 270 262 290 298 304 303 294 270 244 263 277 281 280 282
202 205 207 214 214 199 200 216 197 213 211 190 183 191 190 193 203 211 205 201 196 200 197 195 172 179 197 260 277 273 277 272 266 268 287 291 285 284 288 289 277 280 279
202 205 208 212 215 208 191 206 202 210 208 185 188 195 200 205 200 208 205 202 200 202 187 179 183 223 230 233 262 274 269 276 285 290 290 289 294 290 289 289 282 270 276
Height
757 764 769 774 778 783 787 791 795 798 802 804 807 810 812 815 817 819 821 824 826 829 832 834 836 837 838 839 840 841 842 843 843 843 844 845 845 844 845 844 846 845 843
755 764 770 774 778 783 788 792 796 799 803 806 809 812 815 818 818 821 824 827 830 833 834 836 838 838 840 843 844 844 845 847 847 847 846 848 850 850 850 848 848 848 847
754 764 770 774 780 784 788 793 797 801 805 808 811 814 817 819 821 823 826 829 832 835 838 839 840 842 843 845 847 848 849 849 848 848 850 852 854 853 853 851 851 851 850
754 764 770 774 780 785 789 794 798 802 806 809 812 816 818 821 823 825 828 831 835 837 840 842 843 845 848 850 851 852 852 851 850 851 852 853 856 855 855 856 854 854 854
754 763 771 775 780 785 790 795 800 804 807 811 814 818 820 824 824 828 829 834 837 839 842 845 846 848 850 852 855 855 855 853 853 854 855 857 858 857 858 857 858 856 856
754 759 766 775 779 786 791 796 800 805 809 813 816 820 823 827 828 830 833 836 839 842 845 847 849 851 854 854 857 857 856 855 853 856 857 861 862 862 861 859 860 859 857
756 761 772 778 783 788 792 798 802 806 810 813 818 821 826 830 832 833 835 838 841 844 847 848 851 855 857 857 859 861 859 857 857 858 859 863 864 864 863 863 862 861 859
761 764 773 782 788 793 795 800 804 808 812 815 820 822 827 831 835 838 839 841 844 846 849 851 854 856 858 859 861 863 862 860 861 862 860 864 866 867 866 865 864 865 862
762 752 772 783 789 796 799 804 808 811 815 819 821 824 828 833 836 841 843 845 847 850 852 854 856 858 861 862 863 864 864 863 863 864 864 866 867 867 867 867 867 867 866
756 755 779 789 792 798 804 807 813 817 820 820 823 826 829 836 839 845 847 848 851 854 855 856 858 861 862 864 865 866 866 865 866 864 866 867 868 869 867 868 868 869 867
770 776 783 786 793 798 806 812 818 824 826 827 829 829 833 837 843 848 849 852 855 855 858 858 860 863 864 865 866 867 866 867 868 867 867 867 868 867 869 868 870 871 869
773 777 784 789 792 799 810 815 821 826 829 834 833 836 838 840 846 848 851 855 857 857 861 862 864 865 865 866 868 867 868 868 869 868 867 868 869 869 867 869 871 872 871
777 783 787 791 796 800 810 816 827 825 834 836 837 840 841 843 847 850 853 856 858 861 863 865 866 866 868 867 868 868 869 869 869 869 867 869 868 868 869 869 871 872 872
780 783 788 792 797 804 814 814 822 825 831 834 839 842 842 843 848 853 854 857 860 862 865 866 867 868 869 868 868 869 868 870 869 869 866 868 868 868 870 870 871 871 872
784 789 793 797 802 805 817 815 823 826 829 837 841 843 843 845 849 852 854 858 859 861 864 865 868 868 868 869 869 869 870 869 869 869 868 869 869 869 871 871 872 871 871
788 791 797 805 809 813 823 821 825 827 833 838 841 841 842 847 850 852 855 857 858 861 863 865 867 868 868 868 869 870 870 869 868 869 869 868 869 870 870 870 871 871 871
794 798 800 807 811 814 821 823 827 832 835 836 838 841 844 847 850 851 854 856 857 860 861 864 866 866 867 869 868 868 869 869 869 870 869 869 868 868 870 870 869 869 869
797 802 806 810 819 821 823 830 830 834 835 836 839 839 844 846 849 851 853 855 857 860 861 863 864 866 867 867 867 867 868 868 867 869 868 868 868 868 867 867 867 868 867
802 806 807 815 819 821 825 828 830 832 833 836 836 839 843 845 847 849 852 853 855 858 861 862 863 864 864 866 866 866 866 867 866 867 867 867 867 867 867 865 865 865 865
803 807 810 814 817 820 823 826 829 830 833 834 837 840 842 843 846 848 850 852 854 855 858 860 861 862 864 864 863 863 863 864 864 865 865 865 865 865 866 865 865 863 861
800 804 807 811 815 817 820 823 826 826 830 833 837 838 839 842 844 847 848 851 853 854 857 859 860 861 862 864 862 859 859 859 861 862 862 863 863 863 863 864 864 862 861
796 799 804 807 811 814 816 819 821 824 828 830 833 835 838 839 841 844 846 849 851 852 855 857 858 859 859 861 860 859 854 854 856 858 858 860 860 861 861 861 860 860 860
793 796 800 804 808 811 812 816 818 821 826 828 831 833 835 837 840 842 844 847 849 851 854 855 857 858 857 858 860 861 855 850 854 853 854 855 857 858 858 857 857 857 856
786 791 795 798 803 807 809 811 813 817 821 824 826 829 831 833 837 841 843 845 847 848 851 853 855 857 858 857 858 859 860 860 858 854 853 852 852 852 852 853 853 852 852
780 784 789 793 795 798 803 807 809 812 815 819 822 826 827 828 833 838 841 843 844 847 849 851 853 855 855 857 857 857 857 857 857 856 851 850 849 848 847 847 847 848 847
771 777 781 785 787 792 797 802 805 808 810 814 819 823 825 826 830 833 837 840 842 845 847 849 849 850 852 853 855 856 856 855 853 852 849 848 846 846 845 844 843 842 843